Miscellaneous Local Product
Issued by NWS Hastings, NE

Home | Current Version | Previous Version | Graphics & Text | Print | Product List | Glossary On
Versions: 1 2 3 4 5 6 7 8 9 10 11 12 13 14 15 16 17 18 19 20 21 22 23 24 25 26 27 28 29 30 31 32 33 34 35 36 37 38 39 40 41 42 43 44 45 46 47 48 49 50
000
AXUS43 KGID 040202
MISGRI

GID CWA HOURLY WEATHER ROUNDUP
NATIONAL WEATHER SERVICE HASTINGS NE
900 PM CDT THU SEP 03 2015

NOTE: "FAIR" INDICATES FEW OR NO CLOUDS BELOW 12,000 FEET WITH NO
SIGNIFICANT WEATHER AND/OR OBSTRUCTIONS TO VISIBILITY.

...SOUTH CENTRAL NEBRASKA...

CITY           SKY/WX    TMP DP  RH WIND       PRES   REMARKS
GRAND ISLAND   MOCLDY    82  65  56 SE14      29.79R
HASTINGS       MOCLDY    85  62  46 S14       29.79R
KEARNEY        CLOUDY    81  61  50 SE12      29.78R
ORD            PTCLDY    78  69  73 E6        29.75R
YORK           PTCLDY    81  66  61 S9        29.80R
AURORA         PTCLDY    80  65  61 S10       29.79R
LEXINGTON      CLOUDY    84  62  47 S9        29.77R
HOLDREGE       CLOUDY    82  57  42 S8        29.79R
HEBRON         MOCLDY    81  63  54 SE6       29.81R

...NEBRASKA PANHANDLE...

CITY           SKY/WX    TMP DP  RH WIND       PRES   REMARKS
CHADRON        CLOUDY    82  46  28 CALM      29.80R
ALLIANCE       CLOUDY    76  50  40 NW9       29.88R
SCOTTSBLUFF    CLOUDY    79  48  33 VRB3      29.91R
SIDNEY         CLOUDY    76  48  37 N9        29.90R

...WESTERN AND NORTH CENTRAL NEBRASKA...

CITY           SKY/WX    TMP DP  RH WIND       PRES   REMARKS
VALENTINE      CLOUDY    82  54  37 NW3       29.77F
AINSWORTH      CLOUDY    80  64  59 S6        29.78R
ONEILL         MOCLDY    81  70  70 SE8       29.77R
BROKEN BOW     MOCLDY    81  65  58 E7        29.77R
IMPERIAL       CLOUDY    82  54  37 W3        29.77S
NORTH PLATTE   CLOUDY    78  67  68 E7        29.76R
MCCOOK         CLOUDY    87  58  37 S12       29.75R

...EASTERN NEBRASKA...

CITY           SKY/WX    TMP DP  RH WIND       PRES   REMARKS
NORFOLK        CLEAR     79  71  76 SE8       29.78R
SO SIOUX CITY  PTCLDY    79  72  79 SE9       29.79R
TEKAMAH        PTCLDY    78  73  84 SE8       29.81R
COLUMBUS       CLEAR     81  66  61 SE6       29.79R
ALBION         CLEAR     79  68  69 SE6       29.79R
OMAHA EPPLEY   PTCLDY    83  71  67 SE14      29.82R
OFFUTT AFB     CLEAR     79  71  75 SE8       29.82R
MILLARD        CLEAR     81  72  73 SE5       29.82R
LINCOLN        PTCLDY    83  67  58 S10       29.82R
NEBRASKA CITY  CLEAR     78  65  65 S8        29.84R
BEATRICE       PTCLDY    82  67  59 SE7       29.83R
FALLS CITY     CLEAR     78  69  73 S9        29.85R

...NORTHERN KANSAS...

CITY           SKY/WX    TMP DP  RH WIND       PRES   REMARKS
GOODLAND       MOCLDY    83  54  36 SE9       29.81R
HILL CITY      CLOUDY    89  58  34 S14G22    29.77R
NORTON         CLEAR     86  52  30 SE10      29.77R
PHILLIPSBURG   CLEAR     91  57  31 SE9       29.77R HX  90
SMITH CENTER   CLEAR     84  59  42 SE12      29.79R
HAYS           CLOUDY    88  57  35 S16       29.79R
RUSSELL        CLOUDY    87  61  41 SE15G24   29.78R
CONCORDIA      MOCLDY    81  64  56 SE9       29.82R
SALINA         MOCLDY    84  63  49 SE13      29.81R
TOPEKA         PTCLDY    80  67  64 SE8       29.88R



USA.gov is the U.S. government's official web portal to all federal, state and local government web resources and services.